Spartanburg, SC

6:39 AM EST on November 19, 2017 (GMT -0500)
Spartanburg Downtown Memorial

Weather History for KSPA - August, 2014

Change the Weather History Date:

Sunday, August 10, 2014

  Actual Average (KGSP) Record (KGSP)
Temperature  
Mean Temperature 68 °F -  
Max Temperature 71 °F 87 °F 105 °F (2007)
Min Temperature 66 °F 68 °F 58 °F (1989)
Cooling Degree Days 4    
Growing Degree Days 18 (Base 50)    
Moisture  
Dew Point 70 °F    
Average Humidity 100    
Maximum Humidity 100    
Minimum Humidity 100    
Precipitation  
Precipitation 0.01 in - - ()
Sea Level Pressure  
Sea Level Pressure 30.07 in    
Wind  
Wind Speed 7 mph (NE)    
Max Wind Speed 12 mph    
Max Gust Speed -    
Visibility 7 miles    
Events Rain    
Averages and records for this station are not official NWS values.
T = Trace of Precipitation, MM = Missing Value Source: NWS Daily Summary

Daily Weather History Graph

Daily Weather History Graph

Search for Another Location

Airport or City:

Trip Planner

Search our weather history database for the weather conditions in past years. The results will help you decide how hot, cold, wet, or windy it might be!

Date:

Astronomy

Aug. 10, 2014 Rise Set
Actual Time 6:44 AM EDT 8:21 PM EDT
Civil Twilight 6:17 AM EDT 8:48 PM EDT
Nautical Twilight 5:44 AM EDT 9:21 PM EDT
Astronomical Twilight 5:09 AM EDT 9:55 PM EDT
Moon 8:10 PM EDT (8/10) 6:33 AM EDT (8/10)
Length of Visible Light 14h 31m
Length of Day
13h 37m
Full, 100% of the Moon is Illuminated
Aug 10
Full
Aug 10
Full
Aug 17
Last Quarter
Aug 25
New
Sep 2
First Quarter

Hourly Weather History & Observations

Time (EDT) Temp. Dew Point Humidity Pressure Visibility Wind Dir Wind Speed Gust Speed Precip Events Conditions
12:15 AM 71.6 °F 71.6 °F 100% 30.07 in 5.0 mi ENE 9.2 mph - N/A Rain Heavy Rain
12:35 AM 71.6 °F 71.6 °F 100% 30.07 in 4.0 mi NE 5.8 mph - N/A Rain Rain
12:55 AM 71.6 °F 71.6 °F 100% 30.07 in 3.0 mi NE 9.2 mph - N/A Rain Rain
1:15 AM 71.6 °F 71.6 °F 100% 30.06 in 5.0 mi NE 4.6 mph - N/A Rain Rain
1:35 AM 69.8 °F 69.8 °F 100% 30.06 in 7.0 mi NE 5.8 mph - N/A Rain Light Rain
1:55 AM 69.8 °F 69.8 °F 100% 30.06 in 7.0 mi NE 6.9 mph - N/A Rain Light Rain
2:15 AM 69.8 °F 69.8 °F 100% 30.05 in 7.0 mi NE 6.9 mph - N/A Rain Rain
2:35 AM 69.8 °F 69.8 °F 100% 30.05 in 7.0 mi NE 6.9 mph - N/A Rain Light Rain
2:55 AM 69.8 °F 69.8 °F 100% 30.05 in 10.0 mi NE 6.9 mph - N/A Rain Light Rain
3:15 AM 69.8 °F 69.8 °F 100% 30.05 in 7.0 mi NNE 9.2 mph - N/A Rain Light Rain
3:35 AM 69.8 °F 69.8 °F 100% 30.04 in 7.0 mi NNE 9.2 mph - N/A   Drizzle
3:55 AM 69.8 °F 69.8 °F 100% 30.03 in 2.5 mi NE 6.9 mph - N/A   Drizzle
4:15 AM 68.0 °F 68.0 °F 100% 30.03 in 2.0 mi NE 10.4 mph - N/A   Light Drizzle
4:35 AM 68.0 °F 68.0 °F 100% 30.02 in 3.0 mi NE 11.5 mph - N/A   Overcast
4:55 AM 68.0 °F 68.0 °F 100% 30.03 in 4.0 mi NNE 9.2 mph - N/A   Overcast
5:15 AM 68.0 °F 68.0 °F 100% 30.04 in 3.0 mi NE 6.9 mph - N/A   Overcast
5:35 AM 68.0 °F 68.0 °F 100% 30.04 in 2.0 mi NE 8.1 mph - N/A Rain Rain
6:15 AM 66.2 °F 66.2 °F 100% 30.04 in 4.0 mi NE 6.9 mph - N/A   Overcast
6:35 AM 66.2 °F 66.2 °F 100% 30.05 in 5.0 mi NNE 5.8 mph - N/A   Overcast
7:35 AM 68.0 °F 68.0 °F 100% 30.08 in 7.0 mi NNE 6.9 mph - N/A   Overcast
7:55 AM 68.0 °F 68.0 °F 100% 30.08 in 5.0 mi NE 6.9 mph - N/A Rain Light Rain
8:15 AM 68.0 °F 68.0 °F 100% 30.09 in 10.0 mi NNE 8.1 mph - N/A   Drizzle
8:35 AM 68.0 °F 68.0 °F 100% 30.09 in 10.0 mi NNE 6.9 mph - N/A Rain Rain
8:55 AM 68.0 °F 68.0 °F 100% 30.09 in 10.0 mi NNE 5.8 mph - N/A   Overcast
9:15 AM 68.0 °F 68.0 °F 100% 30.10 in 5.0 mi NNE 6.9 mph - N/A   Overcast
9:35 AM 68.0 °F 68.0 °F 100% 30.10 in 5.0 mi NNE 6.9 mph - N/A   Overcast
9:55 AM 68.0 °F 68.0 °F 100% 30.10 in 2.5 mi NNE 5.8 mph - N/A   Overcast
10:15 AM 68.0 °F 68.0 °F 100% 30.10 in 2.5 mi NNE 5.8 mph - N/A Rain Light Rain
10:35 AM 68.0 °F 68.0 °F 100% 30.10 in 2.5 mi NE 6.9 mph - N/A   Overcast
11:15 AM 69.8 °F 69.8 °F 100% 30.11 in 4.0 mi NNE 5.8 mph - N/A   Overcast
11:35 AM 69.8 °F 69.8 °F 100% 30.10 in 10.0 mi NNE 4.6 mph - N/A   Overcast
11:55 AM 69.8 °F 69.8 °F 100% 30.10 in 10.0 mi NNE 4.6 mph - 0.01 in   Overcast
12:15 PM 69.8 °F 69.8 °F 100% 30.10 in 10.0 mi NNE 4.6 mph - N/A   Overcast
12:35 PM 69.8 °F 69.8 °F 100% 30.10 in 10.0 mi NNE 5.8 mph - N/A   Overcast
12:55 PM 69.8 °F 69.8 °F 100% 30.10 in 4.0 mi NNE 5.8 mph - N/A Rain Heavy Rain
1:35 PM 69.8 °F 69.8 °F 100% 30.10 in 10.0 mi ENE 6.9 mph - N/A   Overcast
2:15 PM 71.6 °F 71.6 °F 100% 30.09 in 10.0 mi NNE 6.9 mph - N/A   Overcast
2:35 PM 71.6 °F 71.6 °F 100% 30.09 in 10.0 mi NNE 5.8 mph - N/A   Overcast
2:55 PM 71.6 °F 71.6 °F 100% 30.08 in 3.0 mi NNE 8.1 mph - N/A Rain Rain
3:15 PM 71.6 °F 71.6 °F 100% 30.08 in 5.0 mi NNE 4.6 mph - N/A   Drizzle
3:35 PM 71.6 °F 71.6 °F 100% 30.07 in 10.0 mi NNE 3.5 mph - N/A   Overcast
3:55 PM 71.6 °F 71.6 °F 100% 30.07 in 10.0 mi NE 4.6 mph - N/A   Overcast
4:15 PM 71.6 °F 71.6 °F 100% 30.07 in 7.0 mi NE 5.8 mph - N/A   Light Drizzle
4:35 PM 71.6 °F 71.6 °F 100% 30.06 in 7.0 mi NNE 5.8 mph - N/A   Light Drizzle
4:55 PM 71.6 °F 71.6 °F 100% 30.05 in 10.0 mi NNE 6.9 mph - N/A   Overcast
5:15 PM 71.6 °F 71.6 °F 100% 30.06 in 7.0 mi NNE 4.6 mph - N/A   Overcast
5:35 PM 71.6 °F 71.6 °F 100% 30.06 in 10.0 mi NE 5.8 mph - N/A   Overcast
5:55 PM 71.6 °F 71.6 °F 100% 30.06 in 10.0 mi NE 5.8 mph - N/A   Overcast
6:35 PM 71.6 °F 71.6 °F 100% 30.06 in 10.0 mi NE 5.8 mph - N/A   Overcast
6:55 PM 71.6 °F 71.6 °F 100% 30.05 in 10.0 mi NE 6.9 mph - N/A   Overcast
7:35 PM 71.6 °F 71.6 °F 100% 30.05 in 10.0 mi NNE 6.9 mph - N/A   Overcast
7:55 PM 71.6 °F 71.6 °F 100% 30.05 in 10.0 mi NE 5.8 mph - N/A   Mostly Cloudy
8:15 PM 69.8 °F 69.8 °F 100% 30.05 in 10.0 mi NE 5.8 mph - N/A   Mostly Cloudy
8:35 PM 69.8 °F 69.8 °F 100% 30.05 in 10.0 mi NNE 6.9 mph - N/A   Overcast
8:55 PM 69.8 °F 69.8 °F 100% 30.05 in 10.0 mi NNE 4.6 mph - N/A   Overcast
9:15 PM 69.8 °F 69.8 °F 100% 30.06 in 7.0 mi NE 3.5 mph - N/A   Overcast
9:35 PM 69.8 °F 69.8 °F 100% 30.06 in 2.5 mi NNE 3.5 mph - N/A   Overcast
9:55 PM 69.8 °F 69.8 °F 100% 30.07 in 1.8 mi NNE 4.6 mph - N/A   Overcast
10:15 PM 69.8 °F 69.8 °F 100% 30.07 in 10.0 mi NE 3.5 mph - N/A   Overcast
10:35 PM 69.8 °F 69.8 °F 100% 30.08 in 10.0 mi NE 4.6 mph - N/A   Overcast
10:55 PM 69.8 °F 69.8 °F 100% 30.08 in 10.0 mi NNE 4.6 mph - N/A   Overcast
11:15 PM 69.8 °F 69.8 °F 100% 30.08 in 10.0 mi NNE 4.6 mph - N/A   Overcast
11:35 PM 69.8 °F 69.8 °F 100% 30.07 in 10.0 mi NNE 3.5 mph - N/A   Overcast
11:55 PM 69.8 °F 69.8 °F 100% 30.08 in 5.0 mi North 3.5 mph - N/A   Overcast